Flag for Australia Weather past 2 weeks in Perth, Western Australia, Australia

Now
81 °F

Sunny.


Feels Like: 79 °F
Forecast: 57 / 76 °F
Wind: 13 mph from Southwest

Location: Belmont Perth Airport

Current Time: Apr 21, 2015 at 4:41:02 PM

Latest Report: Apr 21, 2015 at 4:00 PM


Visibility: 10 mi

Pressure: 30.07 "Hg

Humidity: 26%

Dew point: 43 °F

Location of PerthLocation

Historic Weather in Perth — Graph

°F

Perth temperature yesterday

Maximum temperature yesterday: 82 °F (at 2:00 PM)
Minimum temperature yesterday: 57 °F (at 3:00 AM)
Average temperature yesterday: 68 °F

Past Weeks' High & Low Weather Summary

 TemperatureHumidityPressure
High82 °F (Apr 19, 2:00 PM)100% (Apr 8, 9:00 PM)30.45 "Hg (Apr 8, 9:00 PM)
Low48 °F (Apr 17, 12:00 AM)21% (Apr 19, 2:30 PM)29.71 "Hg (Apr 10, 12:00 AM)
Average66 °F68%30.09 "Hg
* Reported Apr 6 3:00 PM — Apr 21 3:30 PM, Perth, Weather by CustomWeather, © 2015

Note: Actual official high and low records may vary slightly from our data, if they occured in-between our weather recording intervals... More about our weather records

Advertising

Perth weather history for previous 24 hours

 ConditionsComfort  
Time TempWeatherWind HumidityBarometerVisibility
3:30 PM
Tue, Apr 21
82 °FSunny.12 mph21%30.07 "Hg10 mi
3:00 PM82 °FSunny.7 mph21%30.07 "Hg10 mi
2:30 PM82 °FSunny.5 mph21%30.07 "Hg10 mi
2:00 PM82 °FSunny.6 mph23%30.07 "Hg10 mi
1:30 PM81 °FSunny.5 mph24%30.09 "Hg10 mi
1:00 PM81 °FSunny.5 mph24%30.09 "Hg10 mi
12:30 PM81 °FSunny.5 mph26%30.12 "Hg10 mi
12:00 PM79 °FSunny.7 mph28%30.15 "Hg10 mi
11:30 AM79 °FSunny.6 mph28%30.15 "Hg10 mi
10:30 AM73 °FSunny.9 mph33%30.18 "Hg10 mi
10:00 AM72 °FSunny.8 mph33%30.18 "Hg10 mi
9:30 AM70 °FSunny.13 mph35%30.18 "Hg10 mi
9:00 AM66 °FSunny.15 mph40%30.18 "Hg10 mi
8:30 AM64 °FSunny.13 mph40%30.18 "Hg10 mi
8:00 AM63 °FSunny.13 mph42%30.18 "Hg10 mi
7:30 AM61 °FSunny.13 mph42%30.18 "Hg10 mi
7:00 AM59 °FSunny.14 mph45%30.18 "Hg10 mi
6:30 AM59 °FSunny.13 mph48%30.18 "Hg10 mi
6:00 AM59 °FSunny.12 mph48%30.18 "Hg10 mi
5:00 AM59 °FClear.10 mph48%30.15 "Hg10 mi
4:30 AM59 °FClear.12 mph51%30.15 "Hg10 mi
4:00 AM57 °FClear.10 mph55%30.15 "Hg10 mi
3:30 AM57 °FClear.9 mph55%30.15 "Hg10 mi
3:00 AM57 °FClear.10 mph55%30.15 "Hg10 mi
2:30 AM61 °FClear.9 mph48%30.15 "Hg10 mi
2:00 AM63 °FClear.13 mph42%30.15 "Hg10 mi
1:30 AM63 °FClear.10 mph45%30.18 "Hg10 mi
1:00 AM63 °FClear.7 mph45%30.18 "Hg10 mi
12:30 AM64 °FClear.12 mph43%30.18 "Hg10 mi
12:00 AM64 °FClear.10 mph43%30.18 "Hg10 mi
11:30 PM
Mon, Apr 20
64 °FClear.9 mph43%30.18 "Hg10 mi
11:00 PM66 °FClear.12 mph40%30.18 "Hg10 mi
10:30 PM66 °FClear.10 mph43%30.18 "Hg10 mi
10:00 PM66 °FClear.9 mph43%30.21 "Hg10 mi
9:30 PM64 °FClear.6 mph49%30.18 "Hg10 mi
9:00 PM61 °FClear.7 mph59%30.18 "Hg10 mi
8:30 PM61 °FClear.7 mph63%30.18 "Hg10 mi
8:00 PM61 °FClear.6 mph63%30.18 "Hg10 mi
7:30 PM63 °FClear.7 mph59%30.18 "Hg10 mi
7:00 PM63 °FClear.7 mph59%30.18 "Hg10 mi
6:30 PM68 °FClear.7 mph49%30.15 "Hg10 mi
6:00 PM72 °FClear.7 mph44%30.15 "Hg10 mi
5:30 PM75 °FClear.8 mph39%30.15 "Hg10 mi
5:00 PM79 °FClear.8 mph30%30.15 "Hg10 mi
4:30 PM81 °FSunny.10 mph28%30.15 "Hg10 mi
4:00 PM81 °FSunny.12 mph26%30.15 "Hg10 mi
Weather by CustomWeather, © 2015

See weather overviewHow to use our weather pages